Location: Asheville, NC
(35.6000°N, 82.5500°W)
Time: 15:55:14
(UTC-04:00)

XW-2F - Pass Details

Date: 06 January 2018
Orbit: 506 x 527 km, 97.5° (Epoch: 23 June)

Event Time Altitude Azimuth Distance (km) Brightness Sun altitude
Rises 05:30:05 0° 38° (NE) 2,646 ? -25.8°
Reaches altitude 10° 05:33:42 10° 75° (ENE) 1,744 ? -25.1°
Maximum altitude 05:34:48 11° 92° (E) 1,672 ? -24.9°
Drops below altitude 10° 05:35:55 10° 110° (ESE) 1,736 ? -24.7°
Sets 05:39:28 0° 146° (SSE) 2,608 ? -24.0°
